[[{"header":{"parameterUnit":"m.s-1","parameterCategory":1,"la1":30.2991,"la2":30.254,"lo1":-89.0895,"lo2":-89.0444,"dy":0.0017,"dx":0.0017,"nx":28,"ny":28,"refTime":"2024-04-05T09:00:00:Z","depth":0,"parameterNumber":2,"parameterNumberName":"U-component_of_WINDS"},"data":[0,0,0,0,0,0,0,0,0,0,0,0,0,0,0,0,0,0,0,0,0,0,0,0,0,0,0,0,0,0,0,0,0,0,0,0,0,0,0,0,0,0,0,0,0,0,0,0,0,0,0,0,0,0,0,0,0,0,-3.7375,-3.7376,0,-3.7451,-3.7452,-3.7453,-3.7337,-3.7333,-3.7329,-3.7325,-3.7405,-3.741,-3.7416,0,0,0,0,0,0,0,0,0,0,0,0,0,-3.7131,-3.7136,-3.7375,-3.7376,-3.7377,-3.7451,-3.7452,-3.7453,-3.7338,-3.7333,-3.7328,-3.7324,-3.7403,-3.741,-3.7417,0,0,0,0,0,0,0,0,0,0,0,0,0,-3.7225,-3.7138,-3.7375,-3.7329,-3.7325,-3.7451,-3.7452,-3.7453,-3.7339,-3.7333,-3.7327,-3.7321,-3.74,-3.7409,-3.7418,-3.7592,0,0,-3.7444,-3.7448,0,0,0,0,0,0,0,0,-3.722,-3.7234,-3.7334,-3.7332,-3.7328,-3.7378,-3.7395,-3.75,-3.7341,-3.7334,-3.7325,-3.7318,-3.7401,-3.7409,-3.7437,-3.7596,-3.76,-3.7445,-3.7451,-3.7454,-3.7457,0,0,0,0,0,0,0,-3.7213,-3.723,-3.7405,-3.7336,-3.7332,-3.7304,-3.7311,-3.7414,-3.74,-3.7334,-3.7326,-3.7336,-3.7398,-3.7429,-3.7438,-3.7601,-3.7445,-3.7453,-3.7458,-3.7462,-3.7906,-3.7912,0,0,0,0,0,0,-3.7212,-3.7225,-3.7403,-3.7407,-3.7258,-3.7313,-3.7321,-3.7369,-3.7399,-3.7398,-3.7341,-3.7331,-3.7417,-3.7428,-3.744,-3.7646,-3.7454,-3.7462,-3.7467,-3.7899,-3.7907,-3.7914,0,0,0,0,0,0,-3.7208,-3.7229,-3.74,-3.7314,-3.7334,-3.7324,-3.7378,-3.7373,-3.7403,-3.7404,-3.7401,-3.7375,-3.7412,-3.7428,-3.7555,-3.7647,-3.7466,-3.7474,-3.7892,-3.7902,-3.7911,-3.806,0,0,0,0,0,0,-3.7201,-3.7228,-3.7295,-3.7317,-3.7339,-3.7514,-3.7384,-3.7379,-3.7419,-3.7405,-3.7435,-3.7434,-3.7409,-3.7543,-3.7564,-3.7656,-3.7481,-3.7883,-3.7896,-3.7908,-3.8047,-3.8074,-3.8097,0,0,0,0,0,-3.7193,-3.7334,-3.7299,-3.7321,-3.7422,-3.7519,-3.7532,-3.7499,-3.7427,-3.7493,-3.7493,-3.7433,-3.7634,-3.7557,-3.7579,-3.7676,-3.7877,-3.7892,-3.7907,-3.8035,-3.8068,-3.8096,0,0,0,0,0,0,-3.7324,-3.7336,-3.7297,-3.745,-3.7484,-3.75,-3.7583,-3.7535,-3.7591,-3.7577,-3.7534,-3.7541,-3.7678,-3.7689,-3.7603,-3.7846,-3.7743,-3.7763,-3.7833,-3.7865,-3.7889,-3.7883,-3.7489,0,0,0,0,0,-3.7371,-3.7449,-3.7455,-3.759,-3.7609,-3.7593,-3.7635,-3.7606,-3.764,-3.7654,-3.7664,-3.77,-3.777,-3.7818,-3.7883,-3.8047,-3.8052,-3.8125,-3.815,-3.817,-3.8188,-3.8275,-3.8307,-3.7963,-3.7962,-3.7962,0,0,-3.7469,-3.7485,-3.7537,-3.7617,-3.764,-3.7722,-3.7606,-3.7698,-3.7758,-3.7668,-3.7789,-3.7797,-3.7834,-3.7981,-3.8045,-3.7994,-3.8284,-3.8189,-3.8205,-3.8212,-3.8293,-3.8326,-3.8355,-3.7972,-3.7971,-3.7969,0,0,-3.7688,-3.7708,-3.7822,-3.7847,-3.7884,-3.7872,-3.79,-3.7922,-3.7924,-3.8044,-3.7978,-3.8049,-3.8172,-3.82,-3.8231,-3.846,-3.8407,-3.8482,-3.8613,-3.8698,-3.8725,-3.8749,-3.883,-3.886,-3.85,-3.8501,-3.8501,0,-3.7805,-3.7925,-3.7886,-3.7983,-3.8019,-3.7941,-3.8055,-3.8082,-3.8138,-3.8165,-3.8107,-3.8259,-3.8278,-3.8429,-3.8485,-3.8513,-3.8542,-3.8479,-3.8724,-3.8748,-3.8769,-3.8846,-3.8877,-3.8509,-3.8508,-3.8508,-3.8507,0,-3.8067,-3.8151,-3.8238,-3.8294,-3.834,-3.8446,-3.8422,-3.8474,-3.8441,-3.8436,-3.8558,-3.8579,-3.8646,-3.868,-3.8649,-3.8827,-3.8794,-3.8731,-3.8627,-3.8812,-3.8883,-3.8913,-3.8522,-3.8519,-3.8516,-3.8514,0,0,-3.8372,-3.8404,-3.8436,-3.846,-3.8494,-3.8559,-3.866,-3.8725,-3.877,-3.8811,-3.8894,-3.8999,-3.8941,-3.8976,-3.8947,-3.9022,-3.9201,-3.8949,-3.895,-3.8995,-3.9398,-3.9445,-3.9479,-3.9166,-3.9171,-3.9176,-3.9394,0,-3.859,-3.8764,-3.8732,-3.8901,-3.8978,-3.8904,-3.8992,-3.9023,-3.902,-3.9085,-3.9081,-3.9157,-3.9074,-3.9094,-3.9165,-3.9165,-3.9281,-3.9148,-3.9243,-3.9247,-3.9236,-3.9517,-3.9567,-3.9773,-3.9422,-3.9427,-3.943,0,-3.8868,-3.8919,-3.9096,-3.9117,-3.9148,-3.9228,-3.9284,-3.9347,-3.938,-3.9372,-3.9411,-3.9368,-3.9468,-3.9363,-3.95,-3.941,-3.9446,-3.9452,-3.9459,-3.9467,-3.935,-3.9532,-3.9838,-3.9868,-3.9474,-3.947,-3.9467,0,-3.9073,-3.9185,-3.9305,-3.9328,-3.9355,-3.9413,-3.9427,-3.9453,-3.9494,-3.9544,-3.9569,-3.963,-3.9664,-3.9712,-3.9686,-3.9612,-3.9828,-3.972,-3.9824,-3.9825,-3.9873,-3.9871,-4.0189,-3.9898,-3.9897,-3.9897,-3.9896,0,-3.932,-3.9431,-3.9397,-3.9472,-3.9594,-3.9555,-3.9677,-3.9682,-3.9706,-3.978,-3.9719,-3.979,-3.9752,-3.9819,-3.98,-3.9916,-3.9932,-3.9928,-3.9922,-3.9934,-3.9934,-3.9957,-3.9942,-3.9905,-3.9903,-3.9901,-3.99,0,-3.9569,-3.9551,-3.9677,-3.9692,-3.9698,-3.9788,-3.98,-3.9869,-3.9861,-3.9955,-3.9975,-3.9963,-4.0039,-4.0018,-4.0101,-4.0088,-4.0234,-4.021,-4.0223,-4.0217,-4.0322,-4.0312,-4.0666,-4.071,-4.0391,-4.0394,-4.0397,0,-3.9728,-3.9811,-3.9835,-3.9879,-3.9898,-3.9971,-4.0012,-3.9976,-4.0022,-4.0064,-4.0128,-4.0199,-4.0253,-4.0378,-4.0377,-4.044,-4.0416,-4.0536,-4.0425,-4.0434,-4.0417,-4.0412,-4.042,-4.0558,-4.0561,-4.0564,-4.0567,0,-4.0011,-3.9997,-4.0059,-4.0118,-4.0168,-4.0212,-4.0251,-4.0291,-4.0259,-4.0313,-4.0389,-4.0432,-4.0515,-4.0586,-4.0643,-4.0657,-4.0607,-4.0602,-4.0629,-4.0642,-4.0646,-4.0644,-4.0283,-4.0594,-4.0591,-4.0589,-4.0588,-4.0586,-4.0219,-4.0289,-4.0317,-4.0387,-4.0412,-4.045,-4.0515,-4.0515,-4.0578,-4.0643,-4.0618,-4.0706,-4.0735,-4.0807,-4.0828,-4.0896,-4.085,-4.089,-4.09,-4.091,-4.0923,-4.0635,-4.0907,-4.0906,-4.0905,-4.0904,-4.0904,0,-4.0499,-4.0512,-4.0577,-4.0633,-4.0688,-4.0635,-4.0675,-4.0725,-4.0803,-4.0834,-4.0888,-4.0976,-4.1044,-4.1048,-4.1111,-4.1165,-4.1143,-4.1183,-4.1178,-4.1182,-4.0961,-4.0931,-4.1199,-4.1199,-4.1199,-4.1199,-4.1199,-4.1199,-4.065,-4.0766,-4.0756,-4.0884,-4.0897,-4.0982,-4.1009,-4.1043,-4.1068,-4.1168,-4.1224,-4.1226,-4.1246,-4.131,-4.137,-4.1369,-4.1395,-4.1443,-4.1434,-4.1227,-4.1198,-4.117,-4.1141,-4.1449,-4.145,-4.1649,-4.1651,-4.1653]},{"header":{"parameterUnit":"m.s-1","parameterCategory":1,"la1":30.2991,"la2":30.254,"lo1":-89.0895,"lo2":-89.0444,"dy":0.0017,"dx":0.0017,"nx":28,"ny":28,"refTime":"2024-04-05T09:00:00:Z","depth":0,"parameterNumber":3,"parameterNumberName":"V-component_of_WINDS"},"data":[0,0,0,0,0,0,0,0,0,0,0,0,0,0,0,0,0,0,0,0,0,0,0,0,0,0,0,0,0,0,0,0,0,0,0,0,0,0,0,0,0,0,0,0,0,0,0,0,0,0,0,0,0,0,0,0,0,0,-2.5253,-2.5253,0,-2.5285,-2.5286,-2.5286,-2.5261,-2.526,-2.5259,-2.5258,-2.529,-2.5292,-2.5294,0,0,0,0,0,0,0,0,0,0,0,0,0,-2.5167,-2.5169,-2.5253,-2.5253,-2.5253,-2.5285,-2.5286,-2.5286,-2.5261,-2.526,-2.5258,-2.5257,-2.529,-2.5292,-2.5294,0,0,0,0,0,0,0,0,0,0,0,0,0,-2.5202,-2.5169,-2.5253,-2.5245,-2.5244,-2.5285,-2.5286,-2.5286,-2.5261,-2.526,-2.5258,-2.5257,-2.5289,-2.5292,-2.5295,-2.5344,0,0,-2.5303,-2.5304,0,0,0,0,0,0,0,0,-2.52,-2.5205,-2.5246,-2.5245,-2.5245,-2.5267,-2.5267,-2.5306,-2.5262,-2.5255,-2.5258,-2.5256,-2.5284,-2.5287,-2.5297,-2.5346,-2.5347,-2.5303,-2.5305,-2.5306,-2.5307,0,0,0,0,0,0,0,-2.5198,-2.5204,-2.5265,-2.5246,-2.5246,-2.5239,-2.5242,-2.5274,-2.5278,-2.5255,-2.5254,-2.5258,-2.5284,-2.5294,-2.5297,-2.5348,-2.5303,-2.5306,-2.5308,-2.5309,-2.5437,-2.5438,0,0,0,0,0,0,-2.5196,-2.5202,-2.5264,-2.5266,-2.5218,-2.5242,-2.5246,-2.5262,-2.5278,-2.5279,-2.5259,-2.5257,-2.529,-2.5294,-2.5298,-2.5356,-2.5306,-2.5309,-2.5311,-2.5435,-2.5437,-2.5439,0,0,0,0,0,0,-2.5195,-2.5202,-2.5263,-2.5234,-2.5241,-2.5245,-2.5264,-2.5263,-2.5274,-2.5281,-2.5281,-2.5269,-2.5289,-2.5294,-2.5333,-2.5357,-2.531,-2.5313,-2.5433,-2.5436,-2.5438,-2.5473,0,0,0,0,0,0,-2.5192,-2.5202,-2.5221,-2.5234,-2.5243,-2.5298,-2.5265,-2.5265,-2.5279,-2.5276,-2.529,-2.5291,-2.5288,-2.5328,-2.5335,-2.536,-2.5315,-2.5431,-2.5434,-2.5437,-2.547,-2.5477,-2.5482,0,0,0,0,0,-2.5189,-2.523,-2.5222,-2.523,-2.5267,-2.5299,-2.5304,-2.53,-2.5281,-2.53,-2.5304,-2.5291,-2.5353,-2.5333,-2.534,-2.5366,-2.5429,-2.5433,-2.5437,-2.5467,-2.5475,-2.5482,0,0,0,0,0,0,-2.522,-2.5232,-2.5223,-2.527,-2.5284,-2.5295,-2.5319,-2.5309,-2.5328,-2.5324,-2.5318,-2.5321,-2.5361,-2.5367,-2.5344,-2.5414,-2.5388,-2.5394,-2.5408,-2.5416,-2.5422,-2.542,-2.5317,0,0,0,0,0,-2.5232,-2.5258,-2.5266,-2.5306,-2.5314,-2.5315,-2.5329,-2.5324,-2.5338,-2.5344,-2.5351,-2.5364,-2.5387,-2.5402,-2.5423,-2.547,-2.5472,-2.5492,-2.5498,-2.5503,-2.5508,-2.5531,-2.554,-2.5452,-2.5452,-2.5452,0,0,-2.5258,-2.5267,-2.5284,-2.5313,-2.5323,-2.5348,-2.532,-2.5349,-2.5367,-2.5348,-2.5384,-2.539,-2.5404,-2.5447,-2.5466,-2.5453,-2.5532,-2.5508,-2.5512,-2.5514,-2.5536,-2.5545,-2.5552,-2.5454,-2.5454,-2.5453,0,0,-2.5317,-2.5328,-2.5361,-2.5372,-2.5387,-2.5387,-2.5395,-2.5408,-2.5411,-2.5447,-2.5432,-2.5454,-2.5493,-2.5504,-2.5514,-2.5575,-2.5563,-2.5582,-2.5615,-2.5638,-2.5645,-2.5651,-2.5672,-2.5679,-2.5587,-2.5587,-2.5587,0,-2.5347,-2.5386,-2.538,-2.5409,-2.5422,-2.5405,-2.5438,-2.5448,-2.547,-2.5478,-2.5464,-2.5512,-2.5521,-2.5564,-2.5579,-2.5589,-2.5596,-2.5581,-2.5644,-2.5651,-2.5656,-2.5676,-2.5683,-2.5589,-2.5589,-2.5589,-2.5589,0,-2.5421,-2.5447,-2.5472,-2.5493,-2.5508,-2.5539,-2.5538,-2.5554,-2.5547,-2.5549,-2.5585,-2.5594,-2.5616,-2.5626,-2.5621,-2.5669,-2.566,-2.5645,-2.5619,-2.5667,-2.5685,-2.5692,-2.5592,-2.5592,-2.5591,-2.559,0,0,-2.5502,-2.5517,-2.5527,-2.5535,-2.555,-2.557,-2.5599,-2.5621,-2.5634,-2.5649,-2.5672,-2.5705,-2.5691,-2.5703,-2.5698,-2.5718,-2.5764,-2.57,-2.57,-2.5711,-2.5816,-2.5826,-2.5835,-2.5756,-2.5757,-2.5758,-2.5814,0,-2.5561,-2.5613,-2.5607,-2.5656,-2.5679,-2.5663,-2.5688,-2.57,-2.5701,-2.5721,-2.5723,-2.5745,-2.5726,-2.5732,-2.5752,-2.5754,-2.5785,-2.575,-2.5777,-2.5778,-2.5773,-2.5845,-2.5856,-2.5908,-2.5821,-2.5822,-2.5823,0,-2.5637,-2.5654,-2.5705,-2.5714,-2.5724,-2.5747,-2.5765,-2.5784,-2.5796,-2.5795,-2.5808,-2.5799,-2.5827,-2.5801,-2.5839,-2.5816,-2.5826,-2.5829,-2.5831,-2.5833,-2.5803,-2.5848,-2.5925,-2.5932,-2.5834,-2.5834,-2.5833,0,-2.569,-2.5725,-2.5759,-2.5767,-2.5779,-2.5795,-2.5801,-2.5811,-2.5824,-2.5839,-2.5847,-2.5866,-2.5876,-2.589,-2.5886,-2.5868,-2.5925,-2.5899,-2.5925,-2.5925,-2.5937,-2.5936,-2.6017,-2.5945,-2.5945,-2.5945,-2.5945,0,-2.5756,-2.5787,-2.5783,-2.5804,-2.5838,-2.5831,-2.5865,-2.5869,-2.5877,-2.5898,-2.5885,-2.5905,-2.5899,-2.5918,-2.5915,-2.5946,-2.5951,-2.5951,-2.5949,-2.5952,-2.5951,-2.5958,-2.5954,-2.5947,-2.5947,-2.5946,-2.5946,0,-2.582,-2.5819,-2.5855,-2.5863,-2.5865,-2.589,-2.5896,-2.5916,-2.5916,-2.5942,-2.5948,-2.5948,-2.5969,-2.5967,-2.5991,-2.5989,-2.6027,-2.6022,-2.6023,-2.6022,-2.6048,-2.6045,-2.6134,-2.6145,-2.6068,-2.6069,-2.6069,0,-2.5863,-2.5886,-2.5896,-2.5909,-2.5915,-2.5936,-2.5948,-2.5942,-2.5955,-2.5969,-2.5987,-2.6007,-2.6023,-2.6058,-2.606,-2.6078,-2.6072,-2.6102,-2.6075,-2.6076,-2.6071,-2.607,-2.6071,-2.6108,-2.6108,-2.6109,-2.611,0,-2.5937,-2.5934,-2.5953,-2.597,-2.5985,-2.5998,-2.601,-2.6021,-2.6016,-2.6031,-2.6053,-2.6065,-2.6089,-2.6109,-2.6125,-2.613,-2.6119,-2.6118,-2.6125,-2.6127,-2.6126,-2.6126,-2.6037,-2.6116,-2.6116,-2.6115,-2.6115,-2.6114,-2.5991,-2.601,-2.6019,-2.604,-2.6048,-2.6059,-2.6077,-2.6078,-2.6096,-2.6115,-2.611,-2.6134,-2.6144,-2.6165,-2.6171,-2.6189,-2.6178,-2.6189,-2.6191,-2.6193,-2.6196,-2.6124,-2.6193,-2.6192,-2.6192,-2.6192,-2.6192,0,-2.6063,-2.6068,-2.6087,-2.6103,-2.6119,-2.6106,-2.6118,-2.6132,-2.6153,-2.6163,-2.6178,-2.6202,-2.6221,-2.6223,-2.6241,-2.6255,-2.625,-2.6259,-2.6258,-2.6259,-2.6205,-2.6197,-2.6263,-2.6263,-2.6263,-2.6263,-2.6263,-2.6263,-2.6103,-2.6135,-2.6133,-2.6168,-2.6172,-2.6195,-2.6203,-2.6213,-2.622,-2.6247,-2.6262,-2.6264,-2.627,-2.6288,-2.6304,-2.6304,-2.6311,-2.6322,-2.632,-2.627,-2.6263,-2.6256,-2.6248,-2.6324,-2.6324,-2.6372,-2.6373,-2.6373]}]]